Ketchikan, AK

4:51 PM AKDT on September 24, 2018 (GMT -0800)
Ketchikan International

Weather History for PAKT - July, 2018

Change the Weather History Date:

Wednesday, July 25, 2018

  Actual Average Record
Temperature  
Mean Temperature 64 °F -  
Max Temperature 75 °F 65 °F 78 °F (1971)
Min Temperature 54 °F 51 °F 43 °F (1989)
Growing Degree Days 14 (Base 50)    
Moisture  
Dew Point 55 °F    
Average Humidity 81    
Maximum Humidity 97    
Minimum Humidity 50    
Precipitation  
Precipitation 0.00 in - - ()
Sea Level Pressure  
Sea Level Pressure 30.27 in    
Wind  
Wind Speed 5 mph (SSE)    
Max Wind Speed 13 mph    
Max Gust Speed -    
Visibility 6 miles    
Events Fog    
Averages and records for this station are not official NWS values.
T = Trace of Precipitation, MM = Missing Value Source: NWS Daily Summary

Daily Weather History Graph

Daily Weather History Graph

Search for Another Location

Airport or City:

Astronomy

Jul. 25, 2018 Rise Set
Actual Time 4:42 AM AKDT 9:03 PM AKDT
Civil Twilight 3:52 AM AKDT 9:52 PM AKDT
Nautical Twilight 2:34 AM AKDT 11:09 PM AKDT
Astronomical Twilight 1:25 AM AKDT 12:20 AM AKDT
Moon 7:48 PM AKDT 2:48 AM AKDT
Length of Visible Light 18h 00m
Length of Day
16h 21m
Waxing Gibbous, 96% of the Moon is Illuminated
Jul 25
Waxing Gibbous
Jul 27
Full
Aug 4
Last Quarter
Aug 11
New
Aug 17
First Quarter

Hourly Weather History & Observations

Time (AKDT) Temp. Dew Point Humidity Pressure Visibility Wind Dir Wind Speed Gust Speed Precip Events Conditions
12:50 AM 57.2 °F 55.4 °F 94% 30.24 in 10.0 mi SE 5.8 mph - N/A   Scattered Clouds
12:53 AM 57.9 °F 55.9 °F 93% 30.25 in 10.0 mi SE 3.5 mph - N/A   Scattered Clouds
1:02 AM 57.0 °F 55.9 °F 96% 30.24 in 6.0 mi SE 4.6 mph - N/A   Mostly Cloudy
1:07 AM 57.0 °F 55.9 °F 96% 30.24 in 1.8 mi SSE 5.8 mph - N/A   Mostly Cloudy
1:17 AM 55.9 °F 55.0 °F 97% 30.24 in 0.5 mi SSE 5.8 mph - N/A Fog Fog
1:53 AM 55.9 °F 55.0 °F 97% 30.25 in 0.2 mi South 4.6 mph - N/A Fog Fog
2:16 AM 55.0 °F 54.0 °F 96% 30.25 in 0.2 mi SSE 4.6 mph - N/A Fog Fog
2:28 AM 55.0 °F 54.0 °F 96% 30.25 in 0.2 mi Calm Calm - N/A Fog Fog
2:50 AM 55.4 °F 53.6 °F 94% 30.25 in 0.2 mi SSW 3.5 mph - N/A Fog Fog
2:53 AM 55.0 °F 54.0 °F 96% 30.25 in 0.5 mi SSW 3.5 mph - N/A Fog Fog
3:15 AM 54.0 °F 53.1 °F 97% 30.25 in 4.0 mi SSE 3.5 mph - N/A   Scattered Clouds
3:23 AM 54.0 °F 53.1 °F 97% 30.25 in 1.8 mi South 5.8 mph - N/A   Partly Cloudy
3:27 AM 54.0 °F 53.1 °F 97% 30.25 in 0.8 mi SSE 6.9 mph - N/A   Mist
3:34 AM 55.0 °F 54.0 °F 96% 30.25 in 0.2 mi SSE 4.6 mph - N/A Fog Fog
3:38 AM 55.0 °F 54.0 °F 96% 30.26 in 0.2 mi SSE 4.6 mph - N/A Fog Fog
3:53 AM 55.0 °F 54.0 °F 96% 30.26 in 0.2 mi South 4.6 mph - N/A Fog Fog
4:53 AM 54.0 °F 53.1 °F 97% 30.27 in 0.2 mi Calm Calm - N/A Fog Fog
5:26 AM 54.0 °F 53.1 °F 97% 30.27 in 0.2 mi SSE 3.5 mph - N/A Fog Fog
5:41 AM 55.0 °F 53.1 °F 93% 30.27 in 1.0 mi Calm Calm - N/A   Mist
5:44 AM 55.0 °F 53.1 °F 93% 30.27 in 2.0 mi Calm Calm - N/A   Scattered Clouds
5:53 AM 55.0 °F 54.0 °F 96% 30.27 in 5.0 mi Calm Calm - N/A   Partly Cloudy
6:12 AM 55.4 °F 53.6 °F 94% 30.28 in 0.5 mi Calm Calm - N/A Fog Fog
6:13 AM 55.4 °F 53.6 °F 94% 30.28 in 0.5 mi SE 3.5 mph - N/A Fog Fog
6:53 AM 57.2 °F 55.4 °F 94% 30.28 in 0.5 mi SE 3.5 mph - N/A Fog Fog
6:58 AM 57.0 °F 55.9 °F 96% 30.28 in 2.0 mi Calm Calm - N/A Fog Fog
7:06 AM 57.2 °F 55.4 °F 94% 30.28 in 0.5 mi ESE 3.5 mph - N/A Fog Fog
7:53 AM 59.0 °F 55.4 °F 88% 30.28 in 10.0 mi Variable 3.5 mph - N/A   Scattered Clouds
8:09 AM 61.0 °F 55.9 °F 83% 30.28 in 10.0 mi ESE 4.6 mph - N/A   Scattered Clouds
8:27 AM 62.1 °F 55.9 °F 80% 30.28 in 10.0 mi ESE 3.5 mph - N/A   Scattered Clouds
8:46 AM 63.0 °F 55.9 °F 78% 30.28 in 10.0 mi Calm Calm - N/A   Partly Cloudy
8:53 AM 64.4 °F 55.4 °F 73% 30.29 in 10.0 mi Variable 3.5 mph - N/A   Partly Cloudy
9:53 AM 68.0 °F 57.2 °F 68% 30.28 in 10.0 mi NW 8.1 mph - N/A   Clear
10:53 AM 71.6 °F 55.4 °F 57% 30.27 in 10.0 mi NW 9.2 mph - N/A   Clear
11:53 AM 71.6 °F 53.6 °F 53% 30.28 in 10.0 mi NNW 12.7 mph - N/A   Clear
12:38 PM 73.0 °F 54.0 °F 51% 30.28 in 10.0 mi NW 11.5 mph - N/A   Clear
12:53 PM 73.4 °F 53.6 °F 50% 30.28 in 10.0 mi NNW 11.5 mph - N/A   Clear
1:53 PM 75.2 °F 55.4 °F 50% 30.28 in 10.0 mi NW 12.7 mph - N/A   Clear
2:53 PM 73.4 °F 55.4 °F 53% 30.27 in 10.0 mi NW 11.5 mph - N/A   Clear
3:53 PM 73.4 °F 55.4 °F 53% 30.27 in 10.0 mi NW 12.7 mph - N/A   Clear
4:53 PM 73.0 °F 57.0 °F 57% 30.27 in 10.0 mi NW 9.2 mph - N/A   Clear
5:53 PM 73.9 °F 57.0 °F 55% 30.26 in 10.0 mi Variable 6.9 mph - N/A   Clear
6:53 PM 73.0 °F 57.0 °F 57% 30.26 in 10.0 mi NNW 9.2 mph - N/A   Clear
7:53 PM 73.9 °F 55.9 °F 53% 30.26 in 10.0 mi NNW 9.2 mph - N/A   Clear
8:53 PM 71.1 °F 55.9 °F 59% 30.27 in 10.0 mi North 11.5 mph - N/A   Clear
9:53 PM 68.0 °F 57.0 °F 68% 30.28 in 10.0 mi North 12.7 mph - N/A   Clear
10:53 PM 66.9 °F 55.9 °F 68% 30.29 in 10.0 mi North 12.7 mph - N/A   Clear
11:53 PM 66.0 °F 55.9 °F 70% 30.28 in 10.0 mi NNW 9.2 mph - N/A   Clear